(°C)
18°
19°
19°
20°
21°
22°
22°
(°C)
19°
20°
21°
21°
22°
23°
23°
NE
ENE
شرق
SE
NNE
ENE
شرق
(كم/سا)
4-10
4-9
3-12
3-12
4-15
5-13
6-15
(مم)
0
0
0
1.4
1.5
0
1.2
(%)
25
38
39
61
62
58
72

مستوى ارتفاع الشمس

/ 40.1°
sun-icon
UV 4
05:19
21:16
(6°)
05:06
22:04

متر لإنسبروك (LOWI)

الوقت الشروط درجة الحرارة/
نقطة الندى
رياح مجال رؤية حالة الطقس غيوم الضغط تغيير خام
VFR 18°C / 15°C variable 2kt >10km - Few Clouds 1200ft
Scattered Clouds 1700ft
Broken Clouds 10000ft
1016 No Significant change LOWI 290650Z VRB02KT 9999 FEW012 SCT017 BKN100 18/15 Q1016 NOSIG
VFR 17°C / 15°C variable 1kt >10km - Few Clouds 600ft
Broken Clouds 10000ft
1016 No Significant change LOWI 290620Z VRB01KT 9999 FEW006 BKN100 17/15 Q1016 NOSIG
VFR 17°C / 15°C variable 2kt >10km - Few Clouds 500ft
Scattered Clouds 10000ft
1016 No Significant change LOWI 290550Z VRB02KT 9999 FEW005 SCT100 17/15 Q1016 NOSIG
VFR 16°C / 15°C 260º variable 220º to 290º 4kt >10km - Few Clouds 500ft
Scattered Clouds 10000ft
1016 No Significant change LOWI 290520Z 26004KT 220V290 9999 FEW005 SCT100 16/15 Q1016 NOSIG
VFR 16°C / 15°C variable 2kt >10km - Few Clouds 600ft
Broken Clouds 9000ft
1016 No Significant change LOWI 290450Z VRB02KT 9999 FEW006 BKN090 16/15 Q1016 NOSIG
VFR 15°C / 15°C 270º 2kt >10km - Few Clouds 1400ft
Broken Clouds 9000ft
1016 No Significant change LOWI 290420Z 27002KT 9999 FEW014 BKN090 15/15 Q1016 NOSIG
VFR 16°C / 15°C 210º variable 170º to 260º 3kt >10km - Few Clouds 500ft
Broken Clouds 11000ft
1016 No Significant change LOWI 290350Z 21003KT 170V260 9999 FEW005 BKN110 16/15 Q1016 NOSIG
MVFR 16°C / 15°C variable 2kt >10km - Few Clouds 600ft
Broken Clouds 1100ft
1016 - LOWI 290320Z AUTO VRB02KT 9999 FEW006 BKN011 16/15 Q1016
MVFR 15°C / 15°C variable 2kt >10km - Few Clouds 700ft
Broken Clouds 1300ft
1016 - LOWI 290250Z AUTO VRB02KT 9999 FEW007 BKN013 15/15 Q1016
MVFR 16°C / 15°C variable 2kt >10km - Few Clouds 600ft
Broken Clouds 1100ft
1016 - LOWI 290220Z AUTO VRB02KT 9999 FEW006 BKN011 16/15 Q1016
VFR 16°C / 15°C 300º variable 270º to 330º 4kt >10km - Few Clouds 700ft
Scattered Clouds 1000ft
Broken Clouds 10000ft
1017 - LOWI 290150Z AUTO 30004KT 270V330 9999 FEW007 SCT010 BKN100 16/15 Q1017
IFR 16°C / 15°C 250º variable 160º to 300º 7kt >10km - Few Clouds 500ft
Broken Clouds 700ft
1017 - LOWI 290120Z AUTO 25007KT 160V300 9999 FEW005 BKN007 16/15 Q1017
VFR 16°C / 15°C 250º variable 210º to 270º 5kt >10km - Few Clouds 500ft
Scattered Clouds 800ft
1017 - LOWI 290050Z AUTO 25005KT 210V270 9999 FEW005 SCT008 16/15 Q1017
VFR 16°C / 15°C 150º variable 110º to 170º 3kt >10km - Few Clouds 500ft
Scattered Clouds 700ft
1018 - LOWI 290020Z AUTO 15003KT 110V170 9999 FEW005 SCT007 16/15 Q1018
IFR 16°C / 15°C variable 2kt >10km - Few Clouds 400ft
Broken Clouds 700ft
1018 - LOWI 282350Z AUTO VRB02KT 9999 FEW004 BKN007 16/15 Q1018
IFR 16°C / 15°C variable 2kt >10km - Few Clouds 600ft
Broken Clouds 900ft
1018 - LOWI 282320Z AUTO VRB02KT 9999 FEW006 BKN009 16/15 Q1018 RERA
IFR 16°C / 15°C variable 2kt >10km Light Rain 1.00mm precipitation Vertical Visibility of 0ft.
Broken Clouds 800ft
1018 - LOWI 282250Z AUTO VRB02KT 9999 -RA FEW004 BKN008 16/15 Q1018
VFR 16°C / 15°C 260º variable 190º to 290º 3kt >10km - Few Clouds 400ft 1018 - LOWI 282220Z AUTO 26003KT 190V290 9999 FEW004 16/15 Q1018
IFR 16°C / 15°C 270º variable 170º to 330º 3kt >10km - Few Clouds 500ft
Broken Clouds 600ft
1018 - LOWI 282150Z AUTO 27003KT 170V330 9999 FEW005 BKN006 16/15 Q1018
VFR 16°C / 15°C variable 2kt >10km - Few Clouds 300ft
Scattered Clouds 400ft
1019 - LOWI 282120Z AUTO VRB02KT 9999 FEW003 SCT004 16/15 Q1019
VFR 16°C / 15°C variable 1kt >10km - Few Clouds 500ft 1019 No Significant change LOWI 282050Z VRB01KT 9999 FEW005 16/15 Q1019 NOSIG
VFR 17°C / 16°C 320º variable 280º to 040º 3kt >10km - Few Clouds 500ft 1019 No Significant change LOWI 282020Z 32003KT 280V040 9999 FEW005 17/16 Q1019 NOSIG
VFR 17°C / 15°C 290º variable 230º to 320º 4kt >10km - Few Clouds 1500ft 1019 No Significant change LOWI 281950Z 29004KT 230V320 9999 FEW015 17/15 Q1019 NOSIG
VFR 17°C / 16°C variable 2kt >10km - Few Clouds 900ft
Broken Clouds 10000ft
1019 No Significant change LOWI 281920Z VRB02KT 9999 FEW009 BKN100 17/16 Q1019 NOSIG

VFR

18°C / 15°C

[أكثر]
رياح variable 2kt
مجال رؤية >10km
حالة الطقس -
غيوم Few Clouds 1200ft
Scattered Clouds 1700ft
Broken Clouds 10000ft
الضغط 1016
تغيير No Significant change
خام LOWI 290650Z VRB02KT 9999 FEW012 SCT017 BKN100 18/15 Q1016 NOSIG

VFR

17°C / 15°C

[أكثر]
رياح variable 1kt
مجال رؤية >10km
حالة الطقس -
غيوم Few Clouds 600ft
Broken Clouds 10000ft
الضغط 1016
تغيير No Significant change
خام LOWI 290620Z VRB01KT 9999 FEW006 BKN100 17/15 Q1016 NOSIG

VFR

17°C / 15°C

[أكثر]
رياح variable 2kt
مجال رؤية >10km
حالة الطقس -
غيوم Few Clouds 500ft
Scattered Clouds 10000ft
الضغط 1016
تغيير No Significant change
خام LOWI 290550Z VRB02KT 9999 FEW005 SCT100 17/15 Q1016 NOSIG

VFR

16°C / 15°C

[أكثر]
رياح 260º variable 220º to 290º 4kt
مجال رؤية >10km
حالة الطقس -
غيوم Few Clouds 500ft
Scattered Clouds 10000ft
الضغط 1016
تغيير No Significant change
خام LOWI 290520Z 26004KT 220V290 9999 FEW005 SCT100 16/15 Q1016 NOSIG

VFR

16°C / 15°C

[أكثر]
رياح variable 2kt
مجال رؤية >10km
حالة الطقس -
غيوم Few Clouds 600ft
Broken Clouds 9000ft
الضغط 1016
تغيير No Significant change
خام LOWI 290450Z VRB02KT 9999 FEW006 BKN090 16/15 Q1016 NOSIG

VFR

15°C / 15°C

[أكثر]
رياح 270º 2kt
مجال رؤية >10km
حالة الطقس -
غيوم Few Clouds 1400ft
Broken Clouds 9000ft
الضغط 1016
تغيير No Significant change
خام LOWI 290420Z 27002KT 9999 FEW014 BKN090 15/15 Q1016 NOSIG

VFR

16°C / 15°C

[أكثر]
رياح 210º variable 170º to 260º 3kt
مجال رؤية >10km
حالة الطقس -
غيوم Few Clouds 500ft
Broken Clouds 11000ft
الضغط 1016
تغيير No Significant change
خام LOWI 290350Z 21003KT 170V260 9999 FEW005 BKN110 16/15 Q1016 NOSIG

MVFR

16°C / 15°C

[أكثر]
رياح variable 2kt
مجال رؤية >10km
حالة الطقس -
غيوم Few Clouds 600ft
Broken Clouds 1100ft
الضغط 1016
تغيير -
خام LOWI 290320Z AUTO VRB02KT 9999 FEW006 BKN011 16/15 Q1016

MVFR

15°C / 15°C

[أكثر]
رياح variable 2kt
مجال رؤية >10km
حالة الطقس -
غيوم Few Clouds 700ft
Broken Clouds 1300ft
الضغط 1016
تغيير -
خام LOWI 290250Z AUTO VRB02KT 9999 FEW007 BKN013 15/15 Q1016

MVFR

16°C / 15°C

[أكثر]
رياح variable 2kt
مجال رؤية >10km
حالة الطقس -
غيوم Few Clouds 600ft
Broken Clouds 1100ft
الضغط 1016
تغيير -
خام LOWI 290220Z AUTO VRB02KT 9999 FEW006 BKN011 16/15 Q1016

VFR

16°C / 15°C

[أكثر]
رياح 300º variable 270º to 330º 4kt
مجال رؤية >10km
حالة الطقس -
غيوم Few Clouds 700ft
Scattered Clouds 1000ft
Broken Clouds 10000ft
الضغط 1017
تغيير -
خام LOWI 290150Z AUTO 30004KT 270V330 9999 FEW007 SCT010 BKN100 16/15 Q1017

IFR

16°C / 15°C

[أكثر]
رياح 250º variable 160º to 300º 7kt
مجال رؤية >10km
حالة الطقس -
غيوم Few Clouds 500ft
Broken Clouds 700ft
الضغط 1017
تغيير -
خام LOWI 290120Z AUTO 25007KT 160V300 9999 FEW005 BKN007 16/15 Q1017

VFR

16°C / 15°C

[أكثر]
رياح 250º variable 210º to 270º 5kt
مجال رؤية >10km
حالة الطقس -
غيوم Few Clouds 500ft
Scattered Clouds 800ft
الضغط 1017
تغيير -
خام LOWI 290050Z AUTO 25005KT 210V270 9999 FEW005 SCT008 16/15 Q1017

VFR

16°C / 15°C

[أكثر]
رياح 150º variable 110º to 170º 3kt
مجال رؤية >10km
حالة الطقس -
غيوم Few Clouds 500ft
Scattered Clouds 700ft
الضغط 1018
تغيير -
خام LOWI 290020Z AUTO 15003KT 110V170 9999 FEW005 SCT007 16/15 Q1018

IFR

16°C / 15°C

[أكثر]
رياح variable 2kt
مجال رؤية >10km
حالة الطقس -
غيوم Few Clouds 400ft
Broken Clouds 700ft
الضغط 1018
تغيير -
خام LOWI 282350Z AUTO VRB02KT 9999 FEW004 BKN007 16/15 Q1018

IFR

16°C / 15°C

[أكثر]
رياح variable 2kt
مجال رؤية >10km
حالة الطقس -
غيوم Few Clouds 600ft
Broken Clouds 900ft
الضغط 1018
تغيير -
خام LOWI 282320Z AUTO VRB02KT 9999 FEW006 BKN009 16/15 Q1018 RERA

IFR

16°C / 15°C

[أكثر]
رياح variable 2kt
مجال رؤية >10km
حالة الطقس Light Rain 1.00mm precipitation
غيوم Vertical Visibility of 0ft.
Broken Clouds 800ft
الضغط 1018
تغيير -
خام LOWI 282250Z AUTO VRB02KT 9999 -RA FEW004 BKN008 16/15 Q1018

VFR

16°C / 15°C

[أكثر]
رياح 260º variable 190º to 290º 3kt
مجال رؤية >10km
حالة الطقس -
غيوم Few Clouds 400ft
الضغط 1018
تغيير -
خام LOWI 282220Z AUTO 26003KT 190V290 9999 FEW004 16/15 Q1018

IFR

16°C / 15°C

[أكثر]
رياح 270º variable 170º to 330º 3kt
مجال رؤية >10km
حالة الطقس -
غيوم Few Clouds 500ft
Broken Clouds 600ft
الضغط 1018
تغيير -
خام LOWI 282150Z AUTO 27003KT 170V330 9999 FEW005 BKN006 16/15 Q1018

VFR

16°C / 15°C

[أكثر]
رياح variable 2kt
مجال رؤية >10km
حالة الطقس -
غيوم Few Clouds 300ft
Scattered Clouds 400ft
الضغط 1019
تغيير -
خام LOWI 282120Z AUTO VRB02KT 9999 FEW003 SCT004 16/15 Q1019

VFR

16°C / 15°C

[أكثر]
رياح variable 1kt
مجال رؤية >10km
حالة الطقس -
غيوم Few Clouds 500ft
الضغط 1019
تغيير No Significant change
خام LOWI 282050Z VRB01KT 9999 FEW005 16/15 Q1019 NOSIG

VFR

17°C / 16°C

[أكثر]
رياح 320º variable 280º to 040º 3kt
مجال رؤية >10km
حالة الطقس -
غيوم Few Clouds 500ft
الضغط 1019
تغيير No Significant change
خام LOWI 282020Z 32003KT 280V040 9999 FEW005 17/16 Q1019 NOSIG

VFR

17°C / 15°C

[أكثر]
رياح 290º variable 230º to 320º 4kt
مجال رؤية >10km
حالة الطقس -
غيوم Few Clouds 1500ft
الضغط 1019
تغيير No Significant change
خام LOWI 281950Z 29004KT 230V320 9999 FEW015 17/15 Q1019 NOSIG

VFR

17°C / 16°C

[أكثر]
رياح variable 2kt
مجال رؤية >10km
حالة الطقس -
غيوم Few Clouds 900ft
Broken Clouds 10000ft
الضغط 1019
تغيير No Significant change
خام LOWI 281920Z VRB02KT 9999 FEW009 BKN100 17/16 Q1019 NOSIG

انقر لإنسبروك (LOWI)

From till


Maximum Temperature 24ºC on . Minimum Temperature 15ºC on .
From till Wind 270º 4kt. Visibility 10km or more. Few Clouds 500ft. Scattered Clouds 6000ft. Broken Clouds 9000ft.
With 30% probability, Temporarly from till Wind variable 12kt. Gust 25kt. Thunderstorm Rain . Few Clouds 5000ft. Broken Clouds 7000ft.
Temporarly from till Wind 80º 8kt. Showers Rain . Few Clouds 5000ft. Broken Clouds 6000ft.
Temporarly from till Broken Clouds 600ft.

خام: TAF LOWI 290515Z 2906/3006 27004KT 9999 FEW005 SCT060 BKN090 TX24/2915Z TN15/3004Z TEMPO 2909/2916 08008KT SHRA FEW050CB BKN060 PROB30 TEMPO 2909/2915 VRB12G25KT TSRA FEW050CB BKN070 TEMPO 3000/3006 BKN006

رادار لإنسبروك

رذاذ
ضوء
معتدل
ثقيل
ثقيل جدا
وابل

مؤشر المكان يشير الى إنسبروك. تظهر في هذه الرسوم المتحركة هطول الامطار بالرادار للساعة الماضية, و توقعات 2h. رذاذ أو تساقط ثلوج خفيف قد يكون غير مرئي للرادار. كثافة هطول الأمطار مرمزة بالألوان وتتراوح من الأزرق الفاتح إلى البرتقالي.
Copyright 2022 Deutscher Wetterdienst / meteoblue.

صور الأقمار الصناعية الملتقطة و الأمطار حالياً لإنسبروك, النمسا

المؤشر يدل على موقع إنسبروك. [أكثر]

تجمع صورة الأقمار الصناعية في الوقت الفعلي بين الضوء المرئي أثناء النهار والأشعة تحت الحمراء أثناء الليل. لا تبدو الصورة مظلمة ليلاً، لأن الأشعة تحت الحمراء يمكنها الكشف عن الاختلافات في درجة الحرارة. لسوء الحظ ، يصعب التمييز بين السحب المنخفضة والضباب ودرجات حرارة الأرض ، وبالتالي يمكن أن تكون الصور غير مرئية تقريبًا أثناء الليل. يتم تحديث صور الأقمار الصناعية Meteosat الخاصة بأوروبا في الوقت الفعلي كل 5 دقائق، بينما يتم تحديث صور GOES-16 / GOES-17 (أمريكا الشمالية والجنوبية) و Himawari (آسيا) كل 10 دقائق.

يقدر هطول الأمطار من الرادار والأقمار الصناعية. تقديرات هطول الأمطار ليلا من قبل الأقمار الصناعية هي أقل دقة من النهار. اللون البرتقالي يعبر الأماكن حيث تم الكشف عن البرق (أكثر من أوروبا).

حقوق النسخ 2022 EUMETSAT / meteoblue. بيانات البرق مقدمة من nowcast.

العودة الى الأعلى